Starlink 31796

operational
NORAD ID: 59646 Int'l Des: 2024-082 Owner: SPXS Country: US Constellation: starlink
LEOCIRCULAR

About Starlink 31796

Description loading...

Live Position

Loading 3D Globe...

Upcoming Passes

Altitude History

Altitude vs Time

uPlot chart will show altitude changes over time

Two-Line Element Set

1 59646U 24082R 26102.95978382 .00002917 00000-0 11550-3 0 9992
2 59646 43.0026 306.2257 0001520 263.7091 96.3587 15.27577394110211
Epoch: Apr 12, 2026 • Age: 10 hours

Current Status

Altitude 484.2 km
Velocity 7.63 km/s
Sub-Earth Point 28.63°N, 8.36°E
Launch Date May 3, 2024
Age 1.9 years
Type internet

Technical Details

Classification Payload
Mass 730.00 kg
Dry Mass 700.00 kg
Total Mass 730.00 kg
Length 0.30 m
Diameter 4.10 m
Span 29.00 m
Shape Box + pan
Manufacturer SPXS
Bus Type Starlink V2M
Phase Status In Orbit
Owner/State SPXS/US

Large Constellations

Loading constellations...